This demonstration page uses our WeatherBlox Daily Observations layout. Learn more.

Left ArrowRight Arrow

38.20091, -84.87328

Hourly Observations for August 27, 2016

Temp ( °F °C ) Dew Point ( °F °C ) Humidity (%) Winds ( mph kmh ) Pressure ( in mb ) Visibility ( mi km ) Precip ( " mm )
12:53 am 00:53 Clear 75 23.9 71 21.7 88 88 Calm 30.07 1018 9 14 0.00 0.00
1:53 am 01:53 Clear 75 23.9 70 21.1 84 84 Calm 30.07 1018 8 13 0.00 0.00
2:53 am 02:53 Clear 73 22.8 70 21.1 90 90 Calm 30.06 1018 8 13 0.00 0.00
3:53 am 03:53 Clear 74 23.3 70 21.1 88 88 Calm 30.06 1018 8 13 0.00 0.00
4:53 am 04:53 Clear 74 23.3 70 21.1 88 88 Calm 30.05 1018 7 11 0.00 0.00
5:53 am 05:53 Clear 72 22.2 69 20.6 91 91 Calm 30.04 1017 7 11 0.00 0.00
6:53 am 06:53 Clear with Mist and Fog 72 22.2 69 20.6 91 91 Calm 30.05 1018 4 6 0.00 0.00
7:27 am 07:27 Partly Cloudy with Mist and Fog 71 21.7 68 20 90 90 Calm 30.06 1018 3 4 0.00 0.00
7:35 am 07:35 Partly Cloudy with Mist and Fog 72 22.2 69 20.6 91 91 Calm 30.06 1018 4 6 0.00 0.00
7:53 am 07:53 Sunny with Mist and Fog 73 22.8 70 21.1 90 90 Calm 30.07 1018 5 8 0.00 0.00
8:53 am 08:53 Sunny 77 25 70 21.1 79 79 E 3 6 30.08 1019 7 11 0.00 0.00
9:53 am 09:53 Sunny 80 26.7 71 21.7 74 74 E 3 6 30.09 1019 10 16 0.00 0.00
10:53 am 10:53 Sunny 86 30 71 21.7 61 61 Calm 30.09 1019 10 16 0.00 0.00
11:53 am 11:53 Sunny 88 31.1 71 21.7 57 57 S 6 9 30.09 1019 10 16 0.00 0.00
12:53 pm 12:53 Sunny 91 32.8 73 22.8 56 56 VRB 5 7 30.08 1019 10 16 0.00 0.00
1:53 pm 13:53 Mostly Sunny 92 33.3 71 21.7 51 51 SW 9 15 30.06 1018 10 16 0.00 0.00
2:53 pm 14:53 Mostly Sunny 93 33.9 71 21.7 49 49 SW 8 13 30.05 1018 10 16 0.00 0.00
3:53 pm 15:53 Sunny 89 31.7 72 22.2 57 57 NNW 7 11 30.06 1018 10 16 0.00 0.00
4:53 pm 16:53 Sunny 89 31.7 73 22.8 59 59 NE 7 11 30.04 1017 10 16 0.00 0.00
5:53 pm 17:53 Sunny 88 31.1 72 22.2 59 59 NNE 8 13 30.06 1018 10 16 0.00 0.00
6:37 pm 18:37 Sunny with Thunderstorms 86 30 71 21.7 61 61 Calm 30.06 1018 10 16 0.00 0.00
6:53 pm 18:53 Partly Cloudy 86 30 71 21.7 61 61 N 3 6 30.07 1018 10 16 0.00 0.00
7:53 pm 19:53 Sunny 83 28.3 72 22.2 70 70 E 6 9 30.07 1018 10 16 0.00 0.00
8:53 pm 20:53 Clear 82 27.8 72 22.2 72 72 Calm 30.09 1019 10 16 0.00 0.00
9:53 pm 21:53 Clear 81 27.2 71 21.7 72 72 Calm 30.09 1019 10 16 0.00 0.00
10:53 pm 22:53 Clear 79 26.1 71 21.7 77 77 Calm 30.10 1019 10 16 0.00 0.00
11:53 pm 23:53 Clear 77 25 71 21.7 82 82 Calm 30.11 1020 10 16 0.00 0.00

Powered by AerisWeather